Location: Marcé
(47.5801°N, 0.3280°W)
Time: 05:05:29
(UTC+02:00)

Envisat - Visible Passes

Search period start: 25 July 2024 00:00
Search period end: 04 August 2024 00:00
Orbit: 762 x 764 km, 98.3° (Epoch: 24 July)

Date Brightness Start Highest point End Pass type
(mag) Time Alt. Az. Time Alt. Az. Time Alt. Az.
25 Jul 5.4 03:57:05 10° NE 03:59:57 15° E 04:02:48 10° ESE visible
25 Jul 3.0 05:34:26 10° NNE 05:39:32 79° WNW 05:44:35 10° SSW visible
26 Jul 3.8 04:57:08 10° NNE 05:02:05 50° E 05:07:00 10° S visible
27 Jul 4.9 04:20:19 10° NE 04:24:26 24° E 04:28:31 10° SSE visible
28 Jul 5.6 03:45:01 10° ENE 03:46:33 11° E 03:48:05 10° ESE visible
28 Jul 3.1 05:21:13 10° NNE 05:26:20 82° ESE 05:31:24 10° SSW visible
29 Jul 4.2 04:44:03 10° NNE 04:48:48 39° E 04:53:31 10° SSE visible
30 Jul 5.2 04:07:31 10° NE 04:11:05 19° E 04:14:36 10° SE visible
30 Jul 3.1 05:45:27 10° N 05:50:29 63° WNW 05:55:29 10° SSW visible
31 Jul 3.4 05:08:02 10° NNE 05:13:05 63° ESE 05:18:06 10° S visible
01 Aug 4.6 04:31:02 10° NNE 04:35:30 30° E 04:39:55 10° SSE visible
02 Aug 5.4 03:54:56 10° NE 03:57:41 14° E 04:00:25 10° ESE visible
02 Aug 3.0 05:32:11 10° NNE 05:37:17 81° WNW 05:42:21 10° SSW visible
03 Aug 3.8 04:54:54 10° NNE 04:59:50 48° E 05:04:43 10° S visible
